SHT5U EGAC-EGLL

Flight info

Callsign SHT5U
Flight time 0h 46m
Altitude 35000
Route DCT DUFFY L10 RINGA Q39 ETIGA DCT INKOB Q39 NOMSU UQ4 WAL UY53 NUGRA NUGRA2H
Aircraft A320/M-SDE3FGHIJ1RWXY/S

Departure

Time 2026-04-21 23:59
Airport George Best Belfast City Airport (EGAC)

Arrival

Time 2026-04-22 00:46
Airport London Heathrow Airport (EGLL)
Time Latitude Longitude Altitude Speed Heading
2026-04-21 23:40 54.61462 -5.87188 22 ft 0 kts 156°
2026-04-21 23:53 54.61464 -5.87189 21 ft 2 kts 156°
2026-04-21 23:54 54.61482 -5.87204 21 ft 3 kts 155°
2026-04-21 23:54 54.61499 -5.87217 21 ft 3 kts 164°
2026-04-21 23:54 54.61518 -5.87222 21 ft 3 kts 186°
2026-04-21 23:54 54.61538 -5.87214 23 ft 3 kts 210°
2026-04-21 23:55 54.61548 -5.87203 22 ft 1 kts 215°
2026-04-21 23:55 54.61549 -5.87202 21 ft 0 kts 215°
2026-04-21 23:56 54.61544 -5.87208 21 ft 2 kts 215°
2026-04-21 23:57 54.61501 -5.87260 23 ft 11 kts 215°
2026-04-21 23:57 54.61430 -5.87354 21 ft 14 kts 224°
2026-04-21 23:57 54.61349 -5.87486 21 ft 18 kts 215°
2026-04-21 23:57 54.61251 -5.87603 18 ft 14 kts 214°
2026-04-21 23:58 54.61158 -5.87713 17 ft 18 kts 214°
2026-04-21 23:58 54.61080 -5.87872 18 ft 19 kts 271°
2026-04-21 23:58 54.61151 -5.88017 18 ft 15 kts 351°
2026-04-21 23:58 54.61205 -5.87975 18 ft 0 kts 33°
2026-04-21 23:59 54.61255 -5.87916 16 ft 43 kts 34°
2026-04-21 23:59 54.61769 -5.87300 20 ft 130 kts 34°
2026-04-21 23:59 54.62618 -5.86404 638 ft 142 kts 23°
2026-04-22 00:00 54.63579 -5.86538 1618 ft 146 kts 335°
2026-04-22 00:00 54.64267 -5.88011 2142 ft 170 kts 289°
2026-04-22 00:00 54.64211 -5.90099 2418 ft 189 kts 246°
2026-04-22 00:00 54.63357 -5.91911 2687 ft 201 kts 204°
2026-04-22 00:01 54.61991 -5.92369 2941 ft 208 kts 161°
2026-04-22 00:01 54.60745 -5.91123 3341 ft 217 kts 125°
2026-04-22 00:01 54.59861 -5.88902 3995 ft 231 kts 123°
2026-04-22 00:01 54.58818 -5.86759 4923 ft 237 kts 128°
2026-04-22 00:02 54.57685 -5.84664 5842 ft 241 kts 130°
2026-04-22 00:02 54.56524 -5.82551 6757 ft 245 kts 130°
2026-04-22 00:02 54.55349 -5.80395 7620 ft 250 kts 130°
2026-04-22 00:02 54.54157 -5.78170 8454 ft 255 kts 130°
2026-04-22 00:03 54.52949 -5.75876 9273 ft 261 kts 129°
2026-04-22 00:03 54.51728 -5.73527 10085 ft 266 kts 129°
2026-04-22 00:03 54.50494 -5.71090 10730 ft 277 kts 127°
2026-04-22 00:03 54.49264 -5.68300 11001 ft 301 kts 124°
2026-04-22 00:04 54.48010 -5.65275 11254 ft 321 kts 123°
2026-04-22 00:04 54.46687 -5.62009 11400 ft 344 kts 123°
2026-04-22 00:04 54.45288 -5.58527 11639 ft 361 kts 123°
2026-04-22 00:04 54.43836 -5.54936 12040 ft 372 kts 124°
2026-04-22 00:05 54.42328 -5.51251 12560 ft 379 kts 124°
2026-04-22 00:05 54.40793 -5.47528 13157 ft 384 kts 124°
2026-04-22 00:05 54.39232 -5.43768 13747 ft 389 kts 124°
2026-04-22 00:05 54.37652 -5.39973 14350 ft 393 kts 124°
2026-04-22 00:06 54.36052 -5.36129 14945 ft 398 kts 124°
2026-04-22 00:06 54.34441 -5.32256 15479 ft 401 kts 125°
2026-04-22 00:06 54.32767 -5.28244 16026 ft 405 kts 125°
2026-04-22 00:06 54.31142 -5.24358 16527 ft 409 kts 125°
2026-04-22 00:07 54.29478 -5.20383 17015 ft 412 kts 125°
2026-04-22 00:07 54.27803 -5.16382 17494 ft 416 kts 125°
2026-04-22 00:07 54.26114 -5.12347 17958 ft 419 kts 125°
2026-04-22 00:07 54.24410 -5.08278 18395 ft 423 kts 125°
2026-04-22 00:08 54.22687 -5.04176 18804 ft 427 kts 125°
2026-04-22 00:08 54.20943 -5.00033 19215 ft 431 kts 126°
2026-04-22 00:08 54.19180 -4.95861 19607 ft 435 kts 126°
2026-04-22 00:08 54.17401 -4.91664 19987 ft 439 kts 126°
2026-04-22 00:09 54.15603 -4.87434 20355 ft 443 kts 126°
2026-04-22 00:09 54.13785 -4.83160 20729 ft 446 kts 126°
2026-04-22 00:09 54.11959 -4.78867 21066 ft 449 kts 126°
2026-04-22 00:09 54.10119 -4.74550 21397 ft 452 kts 126°
2026-04-22 00:10 54.08269 -4.70214 21714 ft 454 kts 126°
2026-04-22 00:10 54.06376 -4.65785 22013 ft 457 kts 126°
2026-04-22 00:10 54.04502 -4.61413 22312 ft 459 kts 126°
2026-04-22 00:10 54.02613 -4.57010 22597 ft 462 kts 126°
2026-04-22 00:11 54.00710 -4.52585 22882 ft 464 kts 126°
2026-04-22 00:11 53.98805 -4.48156 23161 ft 466 kts 126°
2026-04-22 00:11 53.96885 -4.43696 23366 ft 470 kts 126°
2026-04-22 00:11 53.94949 -4.39209 23600 ft 472 kts 126°
2026-04-22 00:12 53.92973 -4.34640 23865 ft 474 kts 126°
2026-04-22 00:12 53.91014 -4.30125 24088 ft 478 kts 126°
2026-04-22 00:12 53.89036 -4.25565 24202 ft 484 kts 127°
2026-04-22 00:12 53.87032 -4.20948 24331 ft 489 kts 127°
2026-04-22 00:13 53.85006 -4.16295 24479 ft 492 kts 127°
2026-04-22 00:13 53.82965 -4.11627 24673 ft 494 kts 127°
2026-04-22 00:13 53.80915 -4.06945 24837 ft 496 kts 127°
2026-04-22 00:13 53.78853 -4.02248 24989 ft 498 kts 127°
2026-04-22 00:14 53.76783 -3.97542 25151 ft 500 kts 127°
2026-04-22 00:14 53.74705 -3.92820 25294 ft 501 kts 127°
2026-04-22 00:14 53.72624 -3.88096 25426 ft 503 kts 127°
2026-04-22 00:14 53.70530 -3.83355 25553 ft 504 kts 127°
2026-04-22 00:15 53.68429 -3.78605 25671 ft 505 kts 127°
2026-04-22 00:15 53.66321 -3.73848 25801 ft 507 kts 127°
2026-04-22 00:15 53.64210 -3.69090 25925 ft 507 kts 127°
2026-04-22 00:15 53.62091 -3.64327 26047 ft 508 kts 127°
2026-04-22 00:16 53.59970 -3.59570 26180 ft 508 kts 127°
2026-04-22 00:16 53.57840 -3.54804 26298 ft 509 kts 127°
2026-04-22 00:16 53.55711 -3.50049 26408 ft 510 kts 127°
2026-04-22 00:16 53.53577 -3.45293 26550 ft 510 kts 127°
2026-04-22 00:17 53.51436 -3.40530 26679 ft 510 kts 127°
2026-04-22 00:17 53.49299 -3.35784 26821 ft 510 kts 127°
2026-04-22 00:17 53.47159 -3.31035 26945 ft 510 kts 127°
2026-04-22 00:17 53.44992 -3.26231 27115 ft 509 kts 127°
2026-04-22 00:18 53.42854 -3.21506 27272 ft 509 kts 127°
2026-04-22 00:18 53.40708 -3.16779 27409 ft 509 kts 127°
2026-04-22 00:18 53.38562 -3.12063 27563 ft 509 kts 127°
2026-04-22 00:18 53.36429 -3.07339 27727 ft 509 kts 127°
2026-04-22 00:19 53.34317 -3.02589 27894 ft 509 kts 127°
2026-04-22 00:19 53.32213 -2.97820 28070 ft 508 kts 126°
2026-04-22 00:19 53.30118 -2.93070 28235 ft 508 kts 127°
2026-04-22 00:19 53.28016 -2.88324 28403 ft 508 kts 127°
2026-04-22 00:20 53.25899 -2.83585 28586 ft 508 kts 127°
2026-04-22 00:20 53.23779 -2.78870 28758 ft 508 kts 127°
2026-04-22 00:20 53.21654 -2.74162 28949 ft 508 kts 127°
2026-04-22 00:20 53.19531 -2.69465 29144 ft 507 kts 127°
2026-04-22 00:21 53.17401 -2.64760 29333 ft 507 kts 127°
2026-04-22 00:21 53.15277 -2.60072 29493 ft 508 kts 127°
2026-04-22 00:21 53.13152 -2.55368 29669 ft 508 kts 127°
2026-04-22 00:21 53.11065 -2.50529 29852 ft 508 kts 125°
2026-04-22 00:22 53.09067 -2.45673 30042 ft 509 kts 124°
2026-04-22 00:22 53.07129 -2.40839 30230 ft 508 kts 123°
2026-04-22 00:22 53.05136 -2.35884 30436 ft 508 kts 126°
2026-04-22 00:22 53.02877 -2.31392 30646 ft 507 kts 135°
2026-04-22 00:23 53.00229 -2.27547 30859 ft 505 kts 145°
2026-04-22 00:23 52.97322 -2.24389 31044 ft 504 kts 150°
2026-04-22 00:23 52.95348 -2.22347 31174 ft 504 kts 150°
2026-04-22 00:23 52.91372 -2.18231 31442 ft 504 kts 150°
2026-04-22 00:24 52.89404 -2.16187 31568 ft 504 kts 150°
2026-04-22 00:24 52.86436 -2.13090 31761 ft 504 kts 150°
2026-04-22 00:24 52.83472 -2.09988 31956 ft 505 kts 150°
2026-04-22 00:24 52.80470 -2.06848 32162 ft 505 kts 150°
2026-04-22 00:25 52.77502 -2.03747 32355 ft 505 kts 150°
2026-04-22 00:25 52.74531 -2.00653 32565 ft 505 kts 150°
2026-04-22 00:25 52.71552 -1.97565 32770 ft 505 kts 150°
2026-04-22 00:25 52.68575 -1.94495 32958 ft 506 kts 150°
2026-04-22 00:26 52.65586 -1.91419 33149 ft 506 kts 150°
2026-04-22 00:26 52.62602 -1.88349 33347 ft 506 kts 150°
2026-04-22 00:26 52.59616 -1.85279 33555 ft 506 kts 150°
2026-04-22 00:26 52.56629 -1.82206 33755 ft 506 kts 150°
2026-04-22 00:27 52.53639 -1.79136 33880 ft 507 kts 150°
2026-04-22 00:27 52.50664 -1.76085 33245 ft 501 kts 150°
2026-04-22 00:27 52.47714 -1.73064 31651 ft 500 kts 150°
2026-04-22 00:27 52.44748 -1.70039 29863 ft 504 kts 150°
2026-04-22 00:28 52.41779 -1.67014 28382 ft 500 kts 150°
2026-04-22 00:28 52.38842 -1.64020 27004 ft 494 kts 150°
2026-04-22 00:28 52.35946 -1.61074 25674 ft 487 kts 149°
2026-04-22 00:28 52.33013 -1.58476 24881 ft 467 kts 161°
2026-04-22 00:29 52.29959 -1.57015 24023 ft 451 kts 169°
2026-04-22 00:29 52.26890 -1.55855 22976 ft 444 kts 169°
2026-04-22 00:29 52.23908 -1.54774 22034 ft 435 kts 169°
2026-04-22 00:29 52.20975 -1.53756 21160 ft 425 kts 169°
2026-04-22 00:30 52.18144 -1.52618 20345 ft 414 kts 160°
2026-04-22 00:30 52.15635 -1.50484 19563 ft 403 kts 143°
2026-04-22 00:30 52.13619 -1.47427 18735 ft 390 kts 128°
2026-04-22 00:30 52.11953 -1.44018 17876 ft 380 kts 127°
2026-04-22 00:31 52.10353 -1.40702 17405 ft 360 kts 127°
2026-04-22 00:31 52.08863 -1.37609 17271 ft 334 kts 127°
2026-04-22 00:31 52.07486 -1.34749 17145 ft 310 kts 127°
2026-04-22 00:31 52.06201 -1.32087 17015 ft 290 kts 127°
2026-04-22 00:32 52.04990 -1.29583 16749 ft 276 kts 127°
2026-04-22 00:32 52.03814 -1.27156 16304 ft 271 kts 127°
2026-04-22 00:32 52.02650 -1.24762 15809 ft 268 kts 127°
2026-04-22 00:32 52.01505 -1.22409 15334 ft 264 kts 127°
2026-04-22 00:33 52.00374 -1.20092 14842 ft 260 kts 127°
2026-04-22 00:33 51.99254 -1.17796 14361 ft 258 kts 127°
2026-04-22 00:33 51.98140 -1.15504 13973 ft 259 kts 127°
2026-04-22 00:33 51.96926 -1.13320 13409 ft 270 kts 140°
2026-04-22 00:34 51.95260 -1.11772 12473 ft 283 kts 151°
2026-04-22 00:34 51.93431 -1.10315 11578 ft 301 kts 151°
2026-04-22 00:34 51.91521 -1.08841 11213 ft 307 kts 152°
2026-04-22 00:34 51.89600 -1.07374 10894 ft 301 kts 152°
2026-04-22 00:35 51.87739 -1.05961 10766 ft 289 kts 151°
2026-04-22 00:35 51.85927 -1.04580 10581 ft 280 kts 151°
2026-04-22 00:35 51.84178 -1.03238 10311 ft 276 kts 150°
2026-04-22 00:35 51.82455 -1.01907 10174 ft 274 kts 150°
2026-04-22 00:36 51.80737 -1.00572 10048 ft 273 kts 150°
2026-04-22 00:36 51.79023 -0.99243 9919 ft 273 kts 150°
2026-04-22 00:36 51.77306 -0.97915 9581 ft 276 kts 150°
2026-04-22 00:36 51.75574 -0.96581 9257 ft 274 kts 150°
2026-04-22 00:37 51.73867 -0.95270 8810 ft 269 kts 150°
2026-04-22 00:37 51.72185 -0.93974 8152 ft 267 kts 150°
2026-04-22 00:37 51.70514 -0.92686 7533 ft 264 kts 150°
2026-04-22 00:37 51.68868 -0.91421 7015 ft 259 kts 150°
2026-04-22 00:38 51.67250 -0.90181 6500 ft 257 kts 150°
2026-04-22 00:38 51.65637 -0.88939 5980 ft 259 kts 150°
2026-04-22 00:38 51.64005 -0.87685 5471 ft 257 kts 150°
2026-04-22 00:38 51.62406 -0.86458 4875 ft 253 kts 150°
2026-04-22 00:39 51.60812 -0.85232 4440 ft 253 kts 149°
2026-04-22 00:39 51.59230 -0.84017 4115 ft 252 kts 149°
2026-04-22 00:39 51.57642 -0.82799 3772 ft 252 kts 148°
2026-04-22 00:39 51.56084 -0.81612 3598 ft 243 kts 148°
2026-04-22 00:40 51.54586 -0.80479 3483 ft 234 kts 148°
2026-04-22 00:40 51.53147 -0.79391 3380 ft 223 kts 148°
2026-04-22 00:40 51.51777 -0.78357 3283 ft 213 kts 148°
2026-04-22 00:40 51.50473 -0.77367 3190 ft 203 kts 147°
2026-04-22 00:41 51.49260 -0.76366 3105 ft 188 kts 138°
2026-04-22 00:41 51.48358 -0.74998 3025 ft 171 kts 121°
2026-04-22 00:41 51.47819 -0.73376 2977 ft 161 kts 105°
2026-04-22 00:41 51.47630 -0.71663 2853 ft 150 kts 90°
2026-04-22 00:42 51.47639 -0.70019 2681 ft 145 kts 89°
2026-04-22 00:42 51.47649 -0.68458 2497 ft 136 kts 88°
2026-04-22 00:42 51.47657 -0.66977 2333 ft 131 kts 89°
2026-04-22 00:42 51.47666 -0.65522 2162 ft 130 kts 88°
2026-04-22 00:43 51.47674 -0.64082 1992 ft 129 kts 88°
2026-04-22 00:43 51.47682 -0.62651 1829 ft 127 kts 88°
2026-04-22 00:43 51.47689 -0.61230 1662 ft 127 kts 87°
2026-04-22 00:43 51.47696 -0.59812 1486 ft 127 kts 88°
2026-04-22 00:44 51.47703 -0.58397 1315 ft 127 kts 88°
2026-04-22 00:44 51.47710 -0.56974 1147 ft 127 kts 88°
2026-04-22 00:44 51.47717 -0.55557 979 ft 127 kts 88°
2026-04-22 00:44 51.47724 -0.54139 813 ft 127 kts 88°
2026-04-22 00:45 51.47732 -0.52723 639 ft 127 kts 88°
2026-04-22 00:45 51.47734 -0.51305 492 ft 127 kts 89°
2026-04-22 00:45 51.47745 -0.49884 293 ft 127 kts 87°
2026-04-22 00:45 51.47754 -0.48467 124 ft 127 kts 89°
2026-04-22 00:46 51.47759 -0.47134 88 ft 101 kts 90°
2026-04-22 00:46 51.47756 -0.46492 90 ft 25 kts 90°
2026-04-22 00:46 51.47750 -0.46209 89 ft 21 kts 115°
2026-04-22 00:46 51.47642 -0.46078 86 ft 12 kts 159°
2026-04-22 00:47 51.47595 -0.46179 90 ft 17 kts 270°
2026-04-22 00:47 51.47594 -0.46432 86 ft 25 kts 269°
2026-04-22 00:47 51.47592 -0.46731 86 ft 28 kts 269°
2026-04-22 00:47 51.47581 -0.47062 89 ft 31 kts 269°
2026-04-22 00:48 51.47579 -0.47430 87 ft 34 kts 269°
2026-04-22 00:48 51.47580 -0.47829 91 ft 37 kts 270°
2026-04-22 00:48 51.47578 -0.48213 88 ft 25 kts 270°
2026-04-22 00:48 51.47555 -0.48460 86 ft 18 kts 221°
2026-04-22 00:49 51.47426 -0.48477 86 ft 6 kts 179°
2026-04-22 00:49 51.47400 -0.48514 86 ft 7 kts 261°
2026-04-22 00:49 51.47400 -0.48588 88 ft 0 kts 270°